Location: Altamira
(10.5079°N, 66.8544°W)
Time: 01:44:37
(UTC+00:00)

CORIOLIS - Pass Details

Date: 06 July 2022
Orbit: 818 x 838 km, 98.7° (Epoch: 08 August)

Event Time Altitude Azimuth Distance (km) Brightness Sun altitude
Rises 23:17:08 0° 197° (SSW) 3,349 7.2 -6.1°
Reaches altitude 10° 23:20:06 10° 214° (SSW) 2,413 6.7 -6.8°
Maximum altitude 23:23:54 20° 259° (W) 1,812 6.8 -7.6°
Drops below altitude 10° 23:27:42 10° 305° (NW) 2,407 8.2 -8.5°
Sets 23:30:39 0° 322° (NW) 3,338 8.6 -9.1°
